iso_date,Year,Hour,Min,DOY,POS_DOY,Lat,Lon,BP,Ts,Ta,has_bp,has_ts,has_ta,BuoyID,Buoy_Type,Buoy_Owner,Logistics,Hemisphere
2020-07-06T18:00:00Z,2020,18,0,188.75,188.75,70.402,40.625,990.5,6.93,-999.0,yes,yes,no,300234066415770,BD2GHI,AOML,POURQUOI_PAS,North
2020-07-06T19:01:03Z,2020,19,1,188.7924,188.7924,70.394,40.631,989.5,6.96,-999.0,yes,yes,no,300234066415770,BD2GHI,AOML,POURQUOI_PAS,North
2020-07-06T19:59:57Z,2020,20,0,188.8333,188.8333,70.389,40.634,989.1,6.97,-999.0,yes,yes,no,300234066415770,BD2GHI,AOML,POURQUOI_PAS,North
2020-07-06T21:00:00Z,2020,21,0,188.875,188.875,70.386,40.631,989.2,6.98,-999.0,yes,yes,no,300234066415770,BD2GHI,AOML,POURQUOI_PAS,North
2020-07-06T22:00:02Z,2020,22,0,188.9167,188.9167,70.387,40.619,989.7,6.98,-999.0,yes,yes,no,300234066415770,BD2GHI,AOML,POURQUOI_PAS,North
2020-07-06T22:59:57Z,2020,23,0,188.9583,188.9583,70.396,40.604,990.6,6.98,-999.0,yes,yes,no,300234066415770,BD2GHI,AOML,POURQUOI_PAS,North
2020-07-07T00:01:00Z,2020,0,1,189.0007,189.0007,70.407,40.593,991.5,6.98,-999.0,yes,yes,no,300234066415770,BD2GHI,AOML,POURQUOI_PAS,North
2020-07-07T01:01:03Z,2020,1,1,189.0424,189.0424,70.417,40.592,992.0,6.98,-999.0,yes,yes,no,300234066415770,BD2GHI,AOML,POURQUOI_PAS,North
2020-07-07T01:59:57Z,2020,2,0,189.0833,189.0833,70.424,40.597,992.6,6.98,-999.0,yes,yes,no,300234066415770,BD2GHI,AOML,POURQUOI_PAS,North
2020-07-07T03:00:00Z,2020,3,0,189.125,189.125,70.428,40.607,992.8,7.02,-999.0,yes,yes,no,300234066415770,BD2GHI,AOML,POURQUOI_PAS,North
2020-07-07T04:01:03Z,2020,4,1,189.1674,189.1674,70.427,40.625,993.2,7.05,-999.0,yes,yes,no,300234066415770,BD2GHI,AOML,POURQUOI_PAS,North
2020-07-07T04:59:57Z,2020,5,0,189.2083,189.2083,70.423,40.643,993.4,7.01,-999.0,yes,yes,no,300234066415770,BD2GHI,AOML,POURQUOI_PAS,North
2020-07-07T06:00:00Z,2020,6,0,189.25,189.25,70.415,40.664,993.6,7.01,-999.0,yes,yes,no,300234066415770,BD2GHI,AOML,POURQUOI_PAS,North
2020-07-07T07:01:03Z,2020,7,1,189.2924,189.2924,70.404,40.682,994.3,7.08,-999.0,yes,yes,no,300234066415770,BD2GHI,AOML,POURQUOI_PAS,North
2020-07-07T07:59:57Z,2020,8,0,189.3333,189.3333,70.395,40.691,994.8,7.15,-999.0,yes,yes,no,300234066415770,BD2GHI,AOML,POURQUOI_PAS,North
2020-07-07T09:00:00Z,2020,9,0,189.375,189.375,70.389,40.692,996.1,7.22,-999.0,yes,yes,no,300234066415770,BD2GHI,AOML,POURQUOI_PAS,North
2020-07-07T10:59:57Z,2020,11,0,189.4583,189.4583,70.392,40.665,998.2,7.29,-999.0,yes,yes,no,300234066415770,BD2GHI,AOML,POURQUOI_PAS,North
2020-07-07T12:00:00Z,2020,12,0,189.5,189.5,70.4,40.652,999.6,7.38,-999.0,yes,yes,no,300234066415770,BD2GHI,AOML,POURQUOI_PAS,North
2020-07-07T13:01:03Z,2020,13,1,189.5424,189.5424,70.412,40.641,1000.7,7.39,-999.0,yes,yes,no,300234066415770,BD2GHI,AOML,POURQUOI_PAS,North
2020-07-07T13:59:57Z,2020,14,0,189.5833,189.5833,70.422,40.637,1001.7,7.42,-999.0,yes,yes,no,300234066415770,BD2GHI,AOML,POURQUOI_PAS,North
2020-07-07T15:00:00Z,2020,15,0,189.625,189.625,70.428,40.643,1002.6,7.49,-999.0,yes,yes,no,300234066415770,BD2GHI,AOML,POURQUOI_PAS,North
2020-07-07T16:00:02Z,2020,16,0,189.6667,189.6667,70.43,40.657,1003.1,7.51,-999.0,yes,yes,no,300234066415770,BD2GHI,AOML,POURQUOI_PAS,North
2020-07-07T16:59:57Z,2020,17,0,189.7083,189.7083,70.428,40.676,1003.9,7.54,-999.0,yes,yes,no,300234066415770,BD2GHI,AOML,POURQUOI_PAS,North
2020-07-07T18:00:00Z,2020,18,0,189.75,189.75,70.423,40.697,1004.8,7.57,-999.0,yes,yes,no,300234066415770,BD2GHI,AOML,POURQUOI_PAS,North
2020-07-07T19:00:02Z,2020,19,0,189.7917,189.7917,70.415,40.719,1005.3,7.54,-999.0,yes,yes,no,300234066415770,BD2GHI,AOML,POURQUOI_PAS,North
2020-07-07T19:59:57Z,2020,20,0,189.8333,189.8333,70.405,40.736,1006.2,7.54,-999.0,yes,yes,no,300234066415770,BD2GHI,AOML,POURQUOI_PAS,North
2020-07-07T21:00:00Z,2020,21,0,189.875,189.875,70.396,40.74,1006.8,7.5,-999.0,yes,yes,no,300234066415770,BD2GHI,AOML,POURQUOI_PAS,North
2020-07-07T22:00:02Z,2020,22,0,189.9167,189.9167,70.39,40.736,1007.3,7.48,-999.0,yes,yes,no,300234066415770,BD2GHI,AOML,POURQUOI_PAS,North
2020-07-07T23:00:57Z,2020,23,1,189.959,189.959,70.392,40.721,1007.7,7.5,-999.0,yes,yes,no,300234066415770,BD2GHI,AOML,POURQUOI_PAS,North
2020-07-08T00:00:00Z,2020,0,0,190.0,190.0,70.398,40.705,1007.9,7.49,-999.0,yes,yes,no,300234066415770,BD2GHI,AOML,POURQUOI_PAS,North
2020-07-08T01:00:02Z,2020,1,0,190.0417,190.0417,70.405,40.695,1008.3,7.49,-999.0,yes,yes,no,300234066415770,BD2GHI,AOML,POURQUOI_PAS,North
2020-07-08T01:59:57Z,2020,2,0,190.0833,190.0833,70.413,40.691,1008.8,7.49,-999.0,yes,yes,no,300234066415770,BD2GHI,AOML,POURQUOI_PAS,North
2020-07-08T03:00:00Z,2020,3,0,190.125,190.125,70.418,40.692,1008.7,7.48,-999.0,yes,yes,no,300234066415770,BD2GHI,AOML,POURQUOI_PAS,North
2020-07-08T04:00:02Z,2020,4,0,190.1667,190.1667,70.42,40.7,1008.9,7.49,-999.0,yes,yes,no,300234066415770,BD2GHI,AOML,POURQUOI_PAS,North
2020-07-08T04:59:57Z,2020,5,0,190.2083,190.2083,70.418,40.714,1008.8,7.5,-999.0,yes,yes,no,300234066415770,BD2GHI,AOML,POURQUOI_PAS,North
2020-07-08T06:00:00Z,2020,6,0,190.25,190.25,70.413,40.732,1008.7,7.48,-999.0,yes,yes,no,300234066415770,BD2GHI,AOML,POURQUOI_PAS,North
2020-07-08T07:00:02Z,2020,7,0,190.2917,190.2917,70.404,40.75,1009.4,7.53,-999.0,yes,yes,no,300234066415770,BD2GHI,AOML,POURQUOI_PAS,North
2020-07-08T07:59:57Z,2020,8,0,190.3333,190.3333,70.393,40.765,1009.4,7.52,-999.0,yes,yes,no,300234066415770,BD2GHI,AOML,POURQUOI_PAS,North
2020-07-08T09:00:00Z,2020,9,0,190.375,190.375,70.385,40.773,1009.6,7.6,-999.0,yes,yes,no,300234066415770,BD2GHI,AOML,POURQUOI_PAS,North
2020-07-08T10:00:02Z,2020,10,0,190.4167,190.4167,70.376,40.768,1009.9,7.59,-999.0,yes,yes,no,300234066415770,BD2GHI,AOML,POURQUOI_PAS,North
2020-07-08T10:59:57Z,2020,11,0,190.4583,190.4583,70.376,40.761,1010.5,7.58,-999.0,yes,yes,no,300234066415770,BD2GHI,AOML,POURQUOI_PAS,North
2020-07-08T12:00:00Z,2020,12,0,190.5,190.5,70.379,40.746,1010.5,7.67,-999.0,yes,yes,no,300234066415770,BD2GHI,AOML,POURQUOI_PAS,North
2020-07-08T13:00:02Z,2020,13,0,190.5417,190.5417,70.385,40.727,1010.7,7.67,-999.0,yes,yes,no,300234066415770,BD2GHI,AOML,POURQUOI_PAS,North
2020-07-08T13:59:57Z,2020,14,0,190.5833,190.5833,70.393,40.709,1011.0,7.72,-999.0,yes,yes,no,300234066415770,BD2GHI,AOML,POURQUOI_PAS,North
2020-07-08T15:00:00Z,2020,15,0,190.625,190.625,70.401,40.697,1010.9,7.76,-999.0,yes,yes,no,300234066415770,BD2GHI,AOML,POURQUOI_PAS,North
2020-07-08T16:00:02Z,2020,16,0,190.6667,190.6667,70.408,40.698,1010.6,7.74,-999.0,yes,yes,no,300234066415770,BD2GHI,AOML,POURQUOI_PAS,North
2020-07-08T16:59:57Z,2020,17,0,190.7083,190.7083,70.412,40.705,1010.6,7.7,-999.0,yes,yes,no,300234066415770,BD2GHI,AOML,POURQUOI_PAS,North
2020-07-08T18:00:00Z,2020,18,0,190.75,190.75,70.411,40.724,1010.2,7.73,-999.0,yes,yes,no,300234066415770,BD2GHI,AOML,POURQUOI_PAS,North
2020-07-08T19:00:02Z,2020,19,0,190.7917,190.7917,70.404,40.743,1009.9,7.72,-999.0,yes,yes,no,300234066415770,BD2GHI,AOML,POURQUOI_PAS,North
2020-07-08T19:59:57Z,2020,20,0,190.8333,190.8333,70.397,40.763,1010.1,7.66,-999.0,yes,yes,no,300234066415770,BD2GHI,AOML,POURQUOI_PAS,North
2020-07-08T21:00:00Z,2020,21,0,190.875,190.875,70.387,40.777,1010.1,7.6,-999.0,yes,yes,no,300234066415770,BD2GHI,AOML,POURQUOI_PAS,North
2020-07-08T22:00:02Z,2020,22,0,190.9167,190.9167,70.378,40.783,1009.8,7.56,-999.0,yes,yes,no,300234066415770,BD2GHI,AOML,POURQUOI_PAS,North
2020-07-08T23:00:57Z,2020,23,1,190.959,190.959,70.376,40.778,1009.9,7.54,-999.0,yes,yes,no,300234066415770,BD2GHI,AOML,POURQUOI_PAS,North
2020-07-09T00:00:00Z,2020,0,0,191.0,191.0,70.374,40.767,1009.0,7.56,-999.0,yes,yes,no,300234066415770,BD2GHI,AOML,POURQUOI_PAS,North
2020-07-09T01:00:02Z,2020,1,0,191.0417,191.0417,70.377,40.751,1007.8,7.54,-999.0,yes,yes,no,300234066415770,BD2GHI,AOML,POURQUOI_PAS,North
2020-07-09T02:03:59Z,2020,2,4,191.0861,191.0861,70.383,40.733,1007.0,7.53,-999.0,yes,yes,no,300234066415770,BD2GHI,AOML,POURQUOI_PAS,North
2020-07-09T03:00:00Z,2020,3,0,191.125,191.125,70.391,40.72,1006.7,7.48,-999.0,yes,yes,no,300234066415770,BD2GHI,AOML,POURQUOI_PAS,North
2020-07-09T04:00:02Z,2020,4,0,191.1667,191.1667,70.397,40.711,1006.1,7.4,-999.0,yes,yes,no,300234066415770,BD2GHI,AOML,POURQUOI_PAS,North
2020-07-09T04:59:57Z,2020,5,0,191.2083,191.2083,70.402,40.716,1005.8,7.33,-999.0,yes,yes,no,300234066415770,BD2GHI,AOML,POURQUOI_PAS,North
2020-07-09T06:01:00Z,2020,6,1,191.2507,191.2507,70.402,40.727,1005.7,7.27,-999.0,yes,yes,no,300234066415770,BD2GHI,AOML,POURQUOI_PAS,North
2020-07-09T07:00:02Z,2020,7,0,191.2917,191.2917,70.4,40.746,1005.6,7.27,-999.0,yes,yes,no,300234066415770,BD2GHI,AOML,POURQUOI_PAS,North
2020-07-09T07:59:57Z,2020,8,0,191.3333,191.3333,70.396,40.769,1005.8,7.32,-999.0,yes,yes,no,300234066415770,BD2GHI,AOML,POURQUOI_PAS,North
2020-07-09T09:00:00Z,2020,9,0,191.375,191.375,70.389,40.794,1006.5,7.29,-999.0,yes,yes,no,300234066415770,BD2GHI,AOML,POURQUOI_PAS,North
2020-07-09T10:03:56Z,2020,10,4,191.4194,191.4194,70.379,40.819,1007.5,7.24,-999.0,yes,yes,no,300234066415770,BD2GHI,AOML,POURQUOI_PAS,North
2020-07-09T11:00:57Z,2020,11,1,191.459,191.459,70.371,40.834,1007.3,7.25,-999.0,yes,yes,no,300234066415770,BD2GHI,AOML,POURQUOI_PAS,North
2020-07-09T12:00:00Z,2020,12,0,191.5,191.5,70.364,40.836,1007.1,7.4,-999.0,yes,yes,no,300234066415770,BD2GHI,AOML,POURQUOI_PAS,North
2020-07-09T13:00:02Z,2020,13,0,191.5417,191.5417,70.36,40.823,1007.1,7.44,-999.0,yes,yes,no,300234066415770,BD2GHI,AOML,POURQUOI_PAS,North
2020-07-09T14:00:57Z,2020,14,1,191.584,191.584,70.36,40.797,1006.4,7.46,-999.0,yes,yes,no,300234066415770,BD2GHI,AOML,POURQUOI_PAS,North
2020-07-09T15:00:00Z,2020,15,0,191.625,191.625,70.364,40.77,1005.7,7.48,-999.0,yes,yes,no,300234066415770,BD2GHI,AOML,POURQUOI_PAS,North
2020-07-09T16:02:03Z,2020,16,2,191.6681,191.6681,70.371,40.756,1005.8,7.38,-999.0,yes,yes,no,300234066415770,BD2GHI,AOML,POURQUOI_PAS,North
2020-07-09T16:59:57Z,2020,17,0,191.7083,191.7083,70.377,40.745,1005.1,7.43,-999.0,yes,yes,no,300234066415770,BD2GHI,AOML,POURQUOI_PAS,North
2020-07-09T18:00:00Z,2020,18,0,191.75,191.75,70.381,40.743,1004.0,7.39,-999.0,yes,yes,no,300234066415770,BD2GHI,AOML,POURQUOI_PAS,North
2020-07-09T19:00:02Z,2020,19,0,191.7917,191.7917,70.383,40.753,1004.3,7.32,-999.0,yes,yes,no,300234066415770,BD2GHI,AOML,POURQUOI_PAS,North
2020-07-09T20:01:58Z,2020,20,2,191.8347,191.8347,70.381,40.78,1003.8,7.23,-999.0,yes,yes,no,300234066415770,BD2GHI,AOML,POURQUOI_PAS,North
2020-07-09T21:00:00Z,2020,21,0,191.875,191.875,70.375,40.808,1002.8,7.23,-999.0,yes,yes,no,300234066415770,BD2GHI,AOML,POURQUOI_PAS,North
2020-07-09T22:00:02Z,2020,22,0,191.9167,191.9167,70.367,40.836,1002.7,7.23,-999.0,yes,yes,no,300234066415770,BD2GHI,AOML,POURQUOI_PAS,North
2020-07-09T22:59:57Z,2020,23,0,191.9583,191.9583,70.359,40.855,1001.9,7.25,-999.0,yes,yes,no,300234066415770,BD2GHI,AOML,POURQUOI_PAS,North
2020-07-10T00:00:00Z,2020,0,0,192.0,192.0,70.351,40.867,1001.2,7.25,-999.0,yes,yes,no,300234066415770,BD2GHI,AOML,POURQUOI_PAS,North
2020-07-10T01:00:02Z,2020,1,0,192.0417,192.0417,70.344,40.865,1001.2,7.27,-999.0,yes,yes,no,300234066415770,BD2GHI,AOML,POURQUOI_PAS,North
2020-07-10T03:00:00Z,2020,3,0,192.125,192.125,70.34,40.823,1000.8,7.33,-999.0,yes,yes,no,300234066415770,BD2GHI,AOML,POURQUOI_PAS,North
2020-07-10T04:00:02Z,2020,4,0,192.1667,192.1667,70.342,40.798,1001.3,7.28,-999.0,yes,yes,no,300234066415770,BD2GHI,AOML,POURQUOI_PAS,North
2020-07-10T04:59:57Z,2020,5,0,192.2083,192.2083,70.348,40.779,1001.0,7.26,-999.0,yes,yes,no,300234066415770,BD2GHI,AOML,POURQUOI_PAS,North
2020-07-10T06:04:01Z,2020,6,4,192.2528,192.2528,70.352,40.778,1001.4,7.26,-999.0,yes,yes,no,300234066415770,BD2GHI,AOML,POURQUOI_PAS,North
2020-07-10T07:00:02Z,2020,7,0,192.2917,192.2917,70.354,40.784,1001.4,7.25,-999.0,yes,yes,no,300234066415770,BD2GHI,AOML,POURQUOI_PAS,North
2020-07-10T08:03:59Z,2020,8,4,192.3361,192.3361,70.354,40.804,1001.8,7.3,-999.0,yes,yes,no,300234066415770,BD2GHI,AOML,POURQUOI_PAS,North
2020-07-10T09:00:00Z,2020,9,0,192.375,192.375,70.353,40.833,1002.6,7.36,-999.0,yes,yes,no,300234066415770,BD2GHI,AOML,POURQUOI_PAS,North
2020-07-10T10:00:02Z,2020,10,0,192.4167,192.4167,70.349,40.873,1003.7,7.48,-999.0,yes,yes,no,300234066415770,BD2GHI,AOML,POURQUOI_PAS,North
2020-07-10T10:59:57Z,2020,11,0,192.4583,192.4583,70.34,40.904,1004.8,7.39,-999.0,yes,yes,no,300234066415770,BD2GHI,AOML,POURQUOI_PAS,North
2020-07-10T12:00:00Z,2020,12,0,192.5,192.5,70.332,40.928,1005.8,7.35,-999.0,yes,yes,no,300234066415770,BD2GHI,AOML,POURQUOI_PAS,North
2020-07-10T13:03:56Z,2020,13,4,192.5444,192.5444,70.323,40.935,1006.4,7.3,-999.0,yes,yes,no,300234066415770,BD2GHI,AOML,POURQUOI_PAS,North
2020-07-10T14:00:57Z,2020,14,1,192.584,192.584,70.317,40.923,1007.2,7.35,-999.0,yes,yes,no,300234066415770,BD2GHI,AOML,POURQUOI_PAS,North
2020-07-10T15:00:00Z,2020,15,0,192.625,192.625,70.316,40.902,1007.5,7.34,-999.0,yes,yes,no,300234066415770,BD2GHI,AOML,POURQUOI_PAS,North
2020-07-10T16:00:02Z,2020,16,0,192.6667,192.6667,70.317,40.866,1008.1,7.34,-999.0,yes,yes,no,300234066415770,BD2GHI,AOML,POURQUOI_PAS,North
2020-07-10T16:59:57Z,2020,17,0,192.7083,192.7083,70.322,40.839,1008.9,7.31,-999.0,yes,yes,no,300234066415770,BD2GHI,AOML,POURQUOI_PAS,North
2020-07-10T18:00:00Z,2020,18,0,192.75,192.75,70.329,40.819,1009.1,7.26,-999.0,yes,yes,no,300234066415770,BD2GHI,AOML,POURQUOI_PAS,North
2020-07-10T19:00:02Z,2020,19,0,192.7917,192.7917,70.335,40.815,1009.0,7.23,-999.0,yes,yes,no,300234066415770,BD2GHI,AOML,POURQUOI_PAS,North
2020-07-10T19:59:57Z,2020,20,0,192.8333,192.8333,70.341,40.827,1009.0,7.19,-999.0,yes,yes,no,300234066415770,BD2GHI,AOML,POURQUOI_PAS,North
2020-07-10T21:00:00Z,2020,21,0,192.875,192.875,70.344,40.85,1009.1,7.16,-999.0,yes,yes,no,300234066415770,BD2GHI,AOML,POURQUOI_PAS,North
2020-07-10T22:00:02Z,2020,22,0,192.9167,192.9167,70.344,40.878,1009.1,7.19,-999.0,yes,yes,no,300234066415770,BD2GHI,AOML,POURQUOI_PAS,North
2020-07-10T22:59:57Z,2020,23,0,192.9583,192.9583,70.34,40.905,1009.0,7.23,-999.0,yes,yes,no,300234066415770,BD2GHI,AOML,POURQUOI_PAS,North
2020-07-11T00:03:01Z,2020,0,3,193.0021,193.0021,70.334,40.928,1008.9,7.27,-999.0,yes,yes,no,300234066415770,BD2GHI,AOML,POURQUOI_PAS,North
2020-07-11T01:00:02Z,2020,1,0,193.0417,193.0417,70.328,40.935,1008.7,7.26,-999.0,yes,yes,no,300234066415770,BD2GHI,AOML,POURQUOI_PAS,North
2020-07-11T01:59:57Z,2020,2,0,193.0833,193.0833,70.322,40.931,1008.6,7.28,-999.0,yes,yes,no,300234066415770,BD2GHI,AOML,POURQUOI_PAS,North
2020-07-11T03:00:00Z,2020,3,0,193.125,193.125,70.319,40.914,1008.8,7.29,-999.0,yes,yes,no,300234066415770,BD2GHI,AOML,POURQUOI_PAS,North
2020-07-11T04:00:02Z,2020,4,0,193.1667,193.1667,70.317,40.893,1008.5,7.31,-999.0,yes,yes,no,300234066415770,BD2GHI,AOML,POURQUOI_PAS,North
2020-07-11T04:59:57Z,2020,5,0,193.2083,193.2083,70.317,40.865,1008.7,7.35,-999.0,yes,yes,no,300234066415770,BD2GHI,AOML,POURQUOI_PAS,North
2020-07-11T06:00:00Z,2020,6,0,193.25,193.25,70.32,40.842,1008.9,7.43,-999.0,yes,yes,no,300234066415770,BD2GHI,AOML,POURQUOI_PAS,North
2020-07-11T07:00:02Z,2020,7,0,193.2917,193.2917,70.324,40.828,1008.9,7.6,-999.0,yes,yes,no,300234066415770,BD2GHI,AOML,POURQUOI_PAS,North
2020-07-11T07:59:57Z,2020,8,0,193.3333,193.3333,70.328,40.825,1009.1,7.74,-999.0,yes,yes,no,300234066415770,BD2GHI,AOML,POURQUOI_PAS,North
2020-07-11T09:00:00Z,2020,9,0,193.375,193.375,70.33,40.842,1009.2,7.99,-999.0,yes,yes,no,300234066415770,BD2GHI,AOML,POURQUOI_PAS,North
2020-07-11T10:00:02Z,2020,10,0,193.4167,193.4167,70.329,40.866,1009.3,8.23,-999.0,yes,yes,no,300234066415770,BD2GHI,AOML,POURQUOI_PAS,North
2020-07-11T10:59:57Z,2020,11,0,193.4583,193.4583,70.327,40.89,1009.7,8.44,-999.0,yes,yes,no,300234066415770,BD2GHI,AOML,POURQUOI_PAS,North
2020-07-11T12:00:00Z,2020,12,0,193.5,193.5,70.323,40.913,1009.6,8.64,-999.0,yes,yes,no,300234066415770,BD2GHI,AOML,POURQUOI_PAS,North
2020-07-11T13:01:03Z,2020,13,1,193.5424,193.5424,70.319,40.929,1009.9,8.69,-999.0,yes,yes,no,300234066415770,BD2GHI,AOML,POURQUOI_PAS,North
2020-07-11T14:00:57Z,2020,14,1,193.584,193.584,70.315,40.933,1009.9,8.69,-999.0,yes,yes,no,300234066415770,BD2GHI,AOML,POURQUOI_PAS,North
2020-07-11T15:00:00Z,2020,15,0,193.625,193.625,70.313,40.927,1009.6,8.67,-999.0,yes,yes,no,300234066415770,BD2GHI,AOML,POURQUOI_PAS,North
2020-07-11T16:00:02Z,2020,16,0,193.6667,193.6667,70.313,40.909,1009.5,8.61,-999.0,yes,yes,no,300234066415770,BD2GHI,AOML,POURQUOI_PAS,North
2020-07-11T16:59:57Z,2020,17,0,193.7083,193.7083,70.315,40.887,1009.4,8.63,-999.0,yes,yes,no,300234066415770,BD2GHI,AOML,POURQUOI_PAS,North
2020-07-11T18:00:00Z,2020,18,0,193.75,193.75,70.317,40.867,1009.4,8.64,-999.0,yes,yes,no,300234066415770,BD2GHI,AOML,POURQUOI_PAS,North
2020-07-11T19:00:02Z,2020,19,0,193.7917,193.7917,70.321,40.853,1009.2,8.66,-999.0,yes,yes,no,300234066415770,BD2GHI,AOML,POURQUOI_PAS,North
2020-07-11T19:59:57Z,2020,20,0,193.8333,193.8333,70.325,40.851,1008.9,8.67,-999.0,yes,yes,no,300234066415770,BD2GHI,AOML,POURQUOI_PAS,North
2020-07-11T21:00:00Z,2020,21,0,193.875,193.875,70.327,40.862,1008.5,8.64,-999.0,yes,yes,no,300234066415770,BD2GHI,AOML,POURQUOI_PAS,North
2020-07-11T22:00:02Z,2020,22,0,193.9167,193.9167,70.327,40.878,1008.4,8.47,-999.0,yes,yes,no,300234066415770,BD2GHI,AOML,POURQUOI_PAS,North
2020-07-11T22:59:57Z,2020,23,0,193.9583,193.9583,70.325,40.897,1008.1,8.36,-999.0,yes,yes,no,300234066415770,BD2GHI,AOML,POURQUOI_PAS,North
2020-07-12T00:00:00Z,2020,0,0,194.0,194.0,70.322,40.916,1008.1,8.16,-999.0,yes,yes,no,300234066415770,BD2GHI,AOML,POURQUOI_PAS,North
2020-07-12T01:00:02Z,2020,1,0,194.0417,194.0417,70.317,40.933,1007.6,7.94,-999.0,yes,yes,no,300234066415770,BD2GHI,AOML,POURQUOI_PAS,North
2020-07-12T01:59:57Z,2020,2,0,194.0833,194.0833,70.313,40.943,1007.0,7.84,-999.0,yes,yes,no,300234066415770,BD2GHI,AOML,POURQUOI_PAS,North
2020-07-12T03:00:00Z,2020,3,0,194.125,194.125,70.309,40.943,1006.6,7.73,-999.0,yes,yes,no,300234066415770,BD2GHI,AOML,POURQUOI_PAS,North
2020-07-12T04:00:02Z,2020,4,0,194.1667,194.1667,70.306,40.935,1007.0,7.66,-999.0,yes,yes,no,300234066415770,BD2GHI,AOML,POURQUOI_PAS,North
2020-07-12T04:59:57Z,2020,5,0,194.2083,194.2083,70.304,40.919,1007.5,7.61,-999.0,yes,yes,no,300234066415770,BD2GHI,AOML,POURQUOI_PAS,North
2020-07-12T06:00:00Z,2020,6,0,194.25,194.25,70.303,40.907,1007.8,7.6,-999.0,yes,yes,no,300234066415770,BD2GHI,AOML,POURQUOI_PAS,North
2020-07-12T07:01:03Z,2020,7,1,194.2924,194.2924,70.301,40.889,1007.8,7.64,-999.0,yes,yes,no,300234066415770,BD2GHI,AOML,POURQUOI_PAS,North
2020-07-12T07:59:57Z,2020,8,0,194.3333,194.3333,70.302,40.88,1008.5,7.61,-999.0,yes,yes,no,300234066415770,BD2GHI,AOML,POURQUOI_PAS,North
2020-07-12T09:00:00Z,2020,9,0,194.375,194.375,70.303,40.875,1009.1,7.7,-999.0,yes,yes,no,300234066415770,BD2GHI,AOML,POURQUOI_PAS,North
2020-07-12T10:00:02Z,2020,10,0,194.4167,194.4167,70.301,40.88,1009.7,7.68,-999.0,yes,yes,no,300234066415770,BD2GHI,AOML,POURQUOI_PAS,North
2020-07-12T10:59:57Z,2020,11,0,194.4583,194.4583,70.302,40.893,1010.3,7.73,-999.0,yes,yes,no,300234066415770,BD2GHI,AOML,POURQUOI_PAS,North
2020-07-12T12:00:00Z,2020,12,0,194.5,194.5,70.301,40.901,1011.3,7.73,-999.0,yes,yes,no,300234066415770,BD2GHI,AOML,POURQUOI_PAS,North
2020-07-12T13:00:02Z,2020,13,0,194.5417,194.5417,70.299,40.916,1011.9,7.71,-999.0,yes,yes,no,300234066415770,BD2GHI,AOML,POURQUOI_PAS,North
2020-07-12T13:59:57Z,2020,14,0,194.5833,194.5833,70.297,40.926,1012.6,7.72,-999.0,yes,yes,no,300234066415770,BD2GHI,AOML,POURQUOI_PAS,North
2020-07-12T15:00:00Z,2020,15,0,194.625,194.625,70.298,40.939,1013.1,7.72,-999.0,yes,yes,no,300234066415770,BD2GHI,AOML,POURQUOI_PAS,North
2020-07-12T16:01:03Z,2020,16,1,194.6674,194.6674,70.295,40.923,1013.6,7.72,-999.0,yes,yes,no,300234066415770,BD2GHI,AOML,POURQUOI_PAS,North
2020-07-12T16:59:57Z,2020,17,0,194.7083,194.7083,70.294,40.913,1014.2,7.71,-999.0,yes,yes,no,300234066415770,BD2GHI,AOML,POURQUOI_PAS,North
2020-07-12T18:00:00Z,2020,18,0,194.75,194.75,70.296,40.902,1014.9,7.76,-999.0,yes,yes,no,300234066415770,BD2GHI,AOML,POURQUOI_PAS,North
2020-07-12T19:02:03Z,2020,19,2,194.7931,194.7931,70.298,40.89,1015.4,7.76,-999.0,yes,yes,no,300234066415770,BD2GHI,AOML,POURQUOI_PAS,North
2020-07-12T19:59:57Z,2020,20,0,194.8333,194.8333,70.3,40.877,1015.5,7.75,-999.0,yes,yes,no,300234066415770,BD2GHI,AOML,POURQUOI_PAS,North
2020-07-12T21:00:00Z,2020,21,0,194.875,194.875,70.302,40.872,1015.8,7.74,-999.0,yes,yes,no,300234066415770,BD2GHI,AOML,POURQUOI_PAS,North
2020-07-12T22:00:02Z,2020,22,0,194.9167,194.9167,70.302,40.876,1016.1,7.75,-999.0,yes,yes,no,300234066415770,BD2GHI,AOML,POURQUOI_PAS,North
2020-07-12T22:59:57Z,2020,23,0,194.9583,194.9583,70.303,40.884,1016.0,7.75,-999.0,yes,yes,no,300234066415770,BD2GHI,AOML,POURQUOI_PAS,North
2020-07-13T00:00:00Z,2020,0,0,195.0,195.0,70.302,40.892,1016.2,7.75,-999.0,yes,yes,no,300234066415770,BD2GHI,AOML,POURQUOI_PAS,North
2020-07-13T01:00:02Z,2020,1,0,195.0417,195.0417,70.301,40.906,1016.6,7.73,-999.0,yes,yes,no,300234066415770,BD2GHI,AOML,POURQUOI_PAS,North
2020-07-13T02:02:58Z,2020,2,3,195.0854,195.0854,70.301,40.923,1016.9,7.72,-999.0,yes,yes,no,300234066415770,BD2GHI,AOML,POURQUOI_PAS,North
2020-07-13T03:04:01Z,2020,3,4,195.1278,195.1278,70.3,40.931,1017.3,7.71,-999.0,yes,yes,no,300234066415770,BD2GHI,AOML,POURQUOI_PAS,North
2020-07-13T04:03:56Z,2020,4,4,195.1694,195.1694,70.3,40.934,1017.3,7.71,-999.0,yes,yes,no,300234066415770,BD2GHI,AOML,POURQUOI_PAS,North
2020-07-13T04:59:57Z,2020,5,0,195.2083,195.2083,70.3,40.938,1017.5,7.72,-999.0,yes,yes,no,300234066415770,BD2GHI,AOML,POURQUOI_PAS,North
2020-07-13T06:00:00Z,2020,6,0,195.25,195.25,70.301,40.936,1017.6,7.73,-999.0,yes,yes,no,300234066415770,BD2GHI,AOML,POURQUOI_PAS,North
2020-07-13T07:00:02Z,2020,7,0,195.2917,195.2917,70.301,40.927,1017.8,7.74,-999.0,yes,yes,no,300234066415770,BD2GHI,AOML,POURQUOI_PAS,North
2020-07-13T07:59:57Z,2020,8,0,195.3333,195.3333,70.301,40.918,1018.2,7.76,-999.0,yes,yes,no,300234066415770,BD2GHI,AOML,POURQUOI_PAS,North
2020-07-13T09:01:00Z,2020,9,1,195.3757,195.3757,70.296,40.906,1018.7,7.76,-999.0,yes,yes,no,300234066415770,BD2GHI,AOML,POURQUOI_PAS,North
2020-07-13T10:02:55Z,2020,10,3,195.4187,195.4187,70.298,40.913,1018.9,7.77,-999.0,yes,yes,no,300234066415770,BD2GHI,AOML,POURQUOI_PAS,North
2020-07-13T11:00:57Z,2020,11,1,195.459,195.459,70.298,40.914,1018.9,7.79,-999.0,yes,yes,no,300234066415770,BD2GHI,AOML,POURQUOI_PAS,North
2020-07-13T12:00:00Z,2020,12,0,195.5,195.5,70.301,40.919,1018.9,7.83,-999.0,yes,yes,no,300234066415770,BD2GHI,AOML,POURQUOI_PAS,North
2020-07-13T13:02:03Z,2020,13,2,195.5431,195.5431,70.302,40.925,1019.0,7.82,-999.0,yes,yes,no,300234066415770,BD2GHI,AOML,POURQUOI_PAS,North
2020-07-13T14:01:58Z,2020,14,2,195.5847,195.5847,70.302,40.937,1018.8,7.83,-999.0,yes,yes,no,300234066415770,BD2GHI,AOML,POURQUOI_PAS,North
2020-07-13T15:00:00Z,2020,15,0,195.625,195.625,70.306,40.945,1018.8,7.83,-999.0,yes,yes,no,300234066415770,BD2GHI,AOML,POURQUOI_PAS,North
2020-07-13T16:01:03Z,2020,16,1,195.6674,195.6674,70.31,40.949,1019.1,7.83,-999.0,yes,yes,no,300234066415770,BD2GHI,AOML,POURQUOI_PAS,North
2020-07-13T16:59:57Z,2020,17,0,195.7083,195.7083,70.313,40.954,1018.9,7.83,-999.0,yes,yes,no,300234066415770,BD2GHI,AOML,POURQUOI_PAS,North
2020-07-13T18:00:00Z,2020,18,0,195.75,195.75,70.315,40.96,1018.8,7.8,-999.0,yes,yes,no,300234066415770,BD2GHI,AOML,POURQUOI_PAS,North
2020-07-13T19:00:02Z,2020,19,0,195.7917,195.7917,70.317,40.962,1018.8,7.78,-999.0,yes,yes,no,300234066415770,BD2GHI,AOML,POURQUOI_PAS,North
2020-07-13T19:59:57Z,2020,20,0,195.8333,195.8333,70.317,40.96,1018.7,7.75,-999.0,yes,yes,no,300234066415770,BD2GHI,AOML,POURQUOI_PAS,North
2020-07-13T21:00:00Z,2020,21,0,195.875,195.875,70.313,40.96,1018.5,7.71,-999.0,yes,yes,no,300234066415770,BD2GHI,AOML,POURQUOI_PAS,North
2020-07-13T22:00:02Z,2020,22,0,195.9167,195.9167,70.309,40.958,1018.3,7.71,-999.0,yes,yes,no,300234066415770,BD2GHI,AOML,POURQUOI_PAS,North
2020-07-13T23:00:57Z,2020,23,1,195.959,195.959,70.307,40.96,1018.4,7.7,-999.0,yes,yes,no,300234066415770,BD2GHI,AOML,POURQUOI_PAS,North
2020-07-14T00:00:00Z,2020,0,0,196.0,196.0,70.306,40.956,1018.4,7.7,-999.0,yes,yes,no,300234066415770,BD2GHI,AOML,POURQUOI_PAS,North